GOES-S (43226 NORAD) Tracking and Keplerian Element Data

This shows tracking and keplerian element data for the satellite.

Feedback or suggestion? Click here.




ElementValue
Catalog43226
NameGOES-S
Epoch Orbit148
Epoch Day202.41769643
Epoch Year2018
RAAN115.0717
Inclination0.0122
Eccentricity7.63E-05
Argument of Perigee353.755
Mean Anonmoly251.1652
Mean Motion1.00272828
Decay Rate-1.97E-06
L11 43226U 18022A 18202.41769643 -.00000197 00000-0 00000+0 0 9990
L22 43226 0.0122 115.0717 0000763 353.7550 251.1652 1.00272828 1485

Live tracking and technical data element details for GOES-S (NORAD 43226). GOES-S can be tracked NOW for your location showing map with azimuth and elevation plus other details from your city location.

Track the satellite on the map from your city or location and see movement details for azimuth, elevation, latitude, longitude, range, height, and movement on the map or in text.







IsCatalogInMostPopularTable: catalog: 43226, numindb: 140
Update: records affected: 1



GetName: 43226 GOES-S

Hit Count: updated at: Mon, 23 Jul 2018 07:30:20 GMT